Regional Weather Roundup
Issued by NWS

Home | Current Version | Previous Version | Graphics & Text | Print | Product List | Glossary On
Versions: 1 2 3 4 5 6 7 8 9 10 11 12 13 14 15 16 17 18 19 20 21 22 23 24 25 26 27 28 29 30 31 32 33 34 35 36 37 38 39 40 41 42 43 44 45 46 47 48 49
000
ASUS45 KSLC 242110
RWRUT

UTAH REGIONAL WEATHER ROUNDUP
NATIONAL WEATHER SERVICE SALT LAKE CITY UT
200 PM MST WED DEC 24 2014

UTZ001>011-023>025-242200-

NORTHERN UTAH

CITY           SKY/WX    TMP DP  RH WIND       PRES   REMARKS
BRIGHAM CITY   CLOUDY    37  17  44 CALM      29.82F
HILL AFB       CLOUDY    38  14  37 SE8       29.80F WCI  32
LOGAN          MOSUNNY   36  22  56 N5        29.80F WCI  32
OGDEN          CLOUDY    39  18  42 SE8       29.80F WCI  33
PROVO AIRPORT  NOT AVBL
SALT LAKE CITY CLOUDY    41  18  39 S12       29.81F
VERNAL         PTSUNNY   31  14  49 CALM      29.93F
WENDOVER       CLOUDY    34  19  55 E6        29.81F WCI  29
HEBER CITY     CLOUDY    32  19  59 CALM      29.86F
WEST JORDAN    MOSUNNY   37  23  56 S21G31    29.81F WCI  27

$$

UTZ012>022-026-027-242200-

SOUTHERN/CENTRAL UTAH

CITY           SKY/WX    TMP DP  RH WIND       PRES   REMARKS
BLANDING       MOSUNNY   35  11  35 CALM      30.08F
BRYCE CANYON   CLOUDY    32  12  43 SE9       29.97F WCI  24
CEDAR CITY     CLOUDY    43  13  29 S15G25    29.95F
DELTA          CLOUDY    38  20  49 CALM      29.87F
MILFORD        CLOUDY    43  16  33 S23G30    29.89F
MOAB/CYNLANDS  SUNNY     37  14  38 CALM      29.98F
PRICE          PTSUNNY   31  10  41 E5        29.97F WCI  26
ST GEORGE      CLOUDY    45  14  29 W3        30.04F
KANAB          CLOUDY    43  16  33 S7        30.04F

$$

REGIONAL REPORTS     COLORADO/ARIZONA

CITY           SKY/WX    TMP DP  RH WIND       PRES   REMARKS
CRAIG, CO      MOSUNNY   29  12  49 E8        29.92F WCI  21
GRAND JUNCTION SUNNY     33  12  41 SE6       30.01F WCI  28
RIFLE          SUNNY     29  10  45 CALM      30.02F
MONTROSE       SUNNY     34  10  37 CALM      30.01F
CORTEZ         SUNNY     38   8  29 CALM      30.01F
PAGE, AZ       PTSUNNY   42  13  30 SE3       30.00F
GRAND CANYON   PTSUNNY   46  12  25 SW9       30.02F
KINGMAN        CLOUDY    54  12  18 W16       30.03F
FLAGSTAFF      MOSUNNY   49  15  25 SW15      30.04F

$$

REGIONAL REPORTS    NEVADA/IDAHO/WYOMING

CITY           SKY/WX    TMP DP  RH WIND       PRES   REMARKS
LAS VEGAS, NV  CLOUDY    51  18  27 SE3       29.95F
ELY            CLOUDY    39  23  52 NW6       29.87F WCI  35
ELKO           CLOUDY    41  30  65 CALM      29.73F
POCATELLO, ID  CLOUDY    40  19  43 S21G30    29.70F WCI  30
EVANSTON, WY   CLOUDY    34  21  59 SW16      29.77F WCI  24
ROCK SPRINGS   PTSUNNY   35  24  64 S8        29.77F WCI  29
KEMMERER       CLOUDY    32  19  59 W6        29.77F WCI  26

$$


USA.gov is the U.S. government's official web portal to all federal, state and local government web resources and services.